| time (UTC) | temp F | wind direction | speed knots | gust knots | rain 1hr in | rain 24hr in | rain mn in | humidity % | barometer mb |
| 20260505194605 | 79 | 192 | 1.7 | 8.7 | 0.00 | 0.00 | 0.00 | 31 | 1014.2 |
| 20260505193053 | 79 | 167 | 2.6 | 6.1 | 0.00 | 0.00 | 0.00 | 31 | 1014.5 |
| 20260505191553 | 80 | 221 | 2.6 | 6.1 | 0.00 | 0.00 | 0.00 | 29 | 1014.6 |
| 20260505190047 | 80 | 174 | 1.7 | 7.0 | 0.00 | 0.00 | 0.00 | 29 | 1014.8 |
| 20260505184548 | 79 | 145 | 1.7 | 6.1 | 0.00 | 0.00 | 0.00 | 30 | 1015.1 |
| 20260505183044 | 80 | 187 | 0.9 | 7.8 | 0.00 | 0.00 | 0.00 | 29 | 1015.3 |
| 20260505181542 | 79 | 123 | 0.9 | 4.3 | 0.00 | 0.00 | 0.00 | 33 | 1015.5 |
| 20260505180100 | 79 | 201 | 1.7 | 6.1 | 0.00 | 0.00 | 0.00 | 31 | 1015.5 |
| 20260505174555 | 79 | 182 | 1.7 | 7.0 | 0.00 | 0.00 | 0.00 | 33 | 1015.4 |
| 20260505173042 | 78 | 205 | 0.9 | 5.2 | 0.00 | 0.00 | 0.00 | 33 | 1015.6 |
| 20260505171531 | 78 | 164 | 1.7 | 7.8 | 0.00 | 0.00 | 0.00 | 35 | 1015.6 |
| 20260505170004 | 77 | 168 | 0.0 | 5.2 | 0.00 | 0.00 | 0.00 | 34 | 1015.6 |
| 20260505164501 | 77 | 219 | 1.7 | 5.2 | 0.00 | 0.00 | 0.00 | 36 | 1016.2 |
| 20260505163019 | 76 | 214 | 0.9 | 7.0 | 0.00 | 0.00 | 0.00 | 38 | 1016.3 |
| 20260505161514 | 76 | 142 | 2.6 | 7.0 | 0.00 | 0.00 | 0.00 | 37 | 1016.4 |
| 20260505153002 | 75 | 196 | 1.7 | 6.1 | 0.00 | 0.00 | 0.00 | 42 | 1016.7 |
| 20260505151603 | 73 | 215 | 0.0 | 4.3 | 0.00 | 0.00 | 0.00 | 45 | 1016.8 |
| 20260505124539 | 62 | 215 | 0.9 | 4.3 | 0.00 | 0.00 | 0.00 | 57 | 1016.8 |
| 20260505123038 | 60 | 184 | 1.7 | 4.3 | 0.00 | 0.00 | 0.00 | 57 | 1016.9 |
| 20260505121538 | 58 | 182 | 0.0 | 1.7 | 0.00 | 0.00 | 0.00 | 58 | 1016.9 |
| 20260505120038 | 57 | 184 | 0.0 | 3.5 | 0.00 | 0.00 | 0.00 | 59 | 1016.8 |
| 20260505114534 | 56 | 178 | 0.0 | 0.0 | 0.00 | 0.00 | 0.00 | 60 | 1016.7 |
| 20260505113033 | 55 | 163 | 0.0 | 0.0 | 0.00 | 0.00 | 0.00 | 61 | 1016.6 |
| 20260505111536 | 54 | 163 | 0.0 | 0.0 | 0.00 | 0.00 | 0.00 | 62 | 1016.5 |
| 20260505101533 | 53 | 163 | 0.0 | 0.0 | 0.00 | 0.00 | 0.00 | 63 | 1015.6 |
| 20260505100127 | 53 | 163 | 0.0 | 0.0 | 0.00 | 0.00 | 0.00 | 63 | 1015.5 |
| 20260505094553 | 53 | 163 | 0.0 | 0.0 | 0.00 | 0.00 | 0.00 | 63 | 1015.4 |
| 20260505093053 | 53 | 163 | 0.0 | 0.0 | 0.00 | 0.00 | 0.00 | 63 | 1015.4 |
| 20260505091543 | 54 | 163 | 0.0 | 0.0 | 0.00 | 0.00 | 0.00 | 62 | 1015.3 |
| 20260505090033 | 54 | 163 | 0.0 | 0.0 | 0.00 | 0.00 | 0.00 | 60 | 1015.4 |
| 20260505084532 | 55 | 163 | 0.0 | 0.0 | 0.00 | 0.00 | 0.00 | 60 | 1015.2 |
| 20260505083022 | 55 | 163 | 0.0 | 0.0 | 0.00 | 0.00 | 0.00 | 59 | 1015.3 |
| 20260505081512 | 56 | 163 | 0.0 | 0.0 | 0.00 | 0.00 | 0.00 | 58 | 1015.2 |
| 20260505080010 | 56 | 163 | 0.0 | 0.0 | 0.00 | 0.00 | 0.00 | 57 | 1015.1 |
| 20260505074507 | 57 | 163 | 0.0 | 0.0 | 0.00 | 0.00 | 0.00 | 57 | 1015.0 |
| 20260505073005 | 57 | 163 | 0.0 | 0.0 | 0.00 | 0.00 | 0.00 | 56 | 1015.0 |
| 20260505071502 | 58 | 163 | 0.0 | 0.0 | 0.00 | 0.00 | 0.00 | 55 | 1014.9 |
| 20260505070001 | 59 | 163 | 0.0 | 0.0 | 0.00 | 0.00 | 0.00 | 54 | 1014.9 |
| 20260505064556 | 59 | 163 | 0.0 | 2.6 | 0.00 | 0.00 | 0.00 | 54 | 1014.9 |
| 20260505063128 | 60 | 162 | 0.0 | 1.7 | 0.00 | 0.00 | 0.00 | 53 | 1014.9 |
| 20260505061620 | 60 | 138 | 0.0 | 2.6 | 0.00 | 0.00 | 0.00 | 53 | 1014.9 |
| 20260505060100 | 60 | 184 | 0.0 | 2.6 | 0.00 | 0.00 | 0.00 | 52 | 1014.9 |
| 20260505054524 | 61 | 190 | 0.0 | 0.0 | 0.00 | 0.00 | 0.00 | 52 | 1015.0 |
| 20260505053018 | 61 | 186 | 0.0 | 5.2 | 0.00 | 0.00 | 0.00 | 52 | 1015.1 |
| 20260505051530 | 61 | 196 | 0.0 | 3.5 | 0.00 | 0.00 | 0.00 | 51 | 1015.1 |
| 20260505041506 | 63 | 188 | 0.9 | 2.6 | 0.00 | 0.00 | 0.00 | 50 | 1015.1 |
| 20260505040005 | 63 | 148 | 0.9 | 2.6 | 0.00 | 0.00 | 0.00 | 50 | 1015.2 |
| 20260505034502 | 64 | 161 | 0.9 | 4.3 | 0.00 | 0.00 | 0.00 | 49 | 1015.2 |
| 20260505033101 | 64 | 212 | 0.9 | 4.3 | 0.00 | 0.00 | 0.00 | 49 | 1015.2 |
| 20260505031528 | 65 | 196 | 0.0 | 5.2 | 0.00 | 0.00 | 0.00 | 48 | 1015.2 |
| 20260505030030 | 65 | 171 | 1.7 | 7.0 | 0.00 | 0.00 | 0.00 | 48 | 1015.2 |
| 20260505024522 | 66 | 137 | 0.9 | 7.8 | 0.00 | 0.00 | 0.00 | 47 | 1015.2 |
| 20260505023021 | 66 | 182 | 0.9 | 6.1 | 0.00 | 0.00 | 0.00 | 47 | 1015.1 |
| 20260505021518 | 67 | 199 | 1.7 | 7.8 | 0.00 | 0.00 | 0.00 | 47 | 1015.1 |
| 20260505020017 | 67 | 169 | 0.9 | 6.1 | 0.00 | 0.00 | 0.00 | 45 | 1014.9 |
| 20260505014514 | 68 | 186 | 2.6 | 7.0 | 0.00 | 0.00 | 0.00 | 43 | 1014.7 |
| 20260505013013 | 69 | 187 | 0.9 | 7.8 | 0.00 | 0.00 | 0.00 | 40 | 1014.6 |
| 20260505011513 | 69 | 154 | 2.6 | 7.8 | 0.00 | 0.00 | 0.00 | 34 | 1014.3 |
| 20260505010011 | 70 | 162 | 0.0 | 5.2 | 0.00 | 0.00 | 0.00 | 32 | 1014.0 |
| 20260505004509 | 71 | 186 | 0.9 | 2.6 | 0.00 | 0.00 | 0.00 | 31 | 1013.7 |
| 20260505003018 | 71 | 167 | 0.0 | 3.5 | 0.00 | 0.00 | 0.00 | 30 | 1013.7 |
| 20260505001508 | 72 | 169 | 0.0 | 4.3 | 0.00 | 0.00 | 0.00 | 29 | 1013.6 |
| 20260505000009 | 73 | 189 | 0.0 | 2.6 | 0.00 | 0.00 | 0.00 | 28 | 1013.5 |
| 20260504234504 | 74 | 187 | 0.0 | 3.5 | 0.00 | 0.00 | 0.00 | 27 | 1013.5 |
| 20260504233003 | 75 | 169 | 0.0 | 1.7 | 0.00 | 0.00 | 0.00 | 25 | 1013.2 |
| 20260504231502 | 76 | 196 | 0.9 | 6.1 | 0.00 | 0.00 | 0.00 | 24 | 1013.2 |
| 20260504230002 | 77 | 186 | 0.0 | 6.1 | 0.00 | 0.00 | 0.00 | 24 | 1013.1 |
| 20260504224531 | 77 | 134 | 1.7 | 7.0 | 0.00 | 0.00 | 0.00 | 24 | 1013.0 |
| 20260504223030 | 78 | 193 | 0.9 | 5.2 | 0.00 | 0.00 | 0.00 | 20 | 1013.0 |
| 20260504221600 | 78 | 187 | 0.9 | 7.0 | 0.00 | 0.00 | 0.00 | 20 | 1013.0 |
| 20260504220058 | 79 | 215 | 0.0 | 4.3 | 0.00 | 0.00 | 0.00 | 20 | 1012.9 |
| 20260504214557 | 79 | 199 | 0.9 | 6.1 | 0.00 | 0.00 | 0.00 | 19 | 1013.1 |
| 20260504213053 | 79 | 182 | 1.7 | 4.3 | 0.00 | 0.00 | 0.00 | 19 | 1013.2 |
| 20260504211552 | 79 | 246 | 0.9 | 4.3 | 0.00 | 0.00 | 0.00 | 18 | 1013.2 |
| 20260504210105 | 79 | 196 | 0.0 | 5.2 | 0.00 | 0.00 | 0.00 | 20 | 1013.2 |
| 20260504204554 | 79 | 236 | 0.9 | 6.1 | 0.00 | 0.00 | 0.00 | 19 | 1013.3 |
| 20260504203102 | 78 | 230 | 0.9 | 5.2 | 0.00 | 0.00 | 0.00 | 18 | 1013.3 |
| 20260504201543 | 79 | 195 | 1.7 | 8.7 | 0.00 | 0.00 | 0.00 | 17 | 1013.5 |
| 20260504200042 | 78 | 196 | 0.9 | 7.0 | 0.00 | 0.00 | 0.00 | 19 | 1013.7 |